Location: Hylvaty SDH
(49.9612°N, 16.4057°E)
Time: 00:46:01
(UTC+01:00)

Transit 2A Rocket - Visible Passes

Search period start: 26 January 2020 00:00
Search period end: 05 February 2020 00:00
Orbit: 593 x 910 km, 66.7° (Epoch: 25 January)

Date Brightness Start Highest point End Pass type
(mag) Time Alt. Az. Time Alt. Az. Time Alt. Az.
26 Jan 6.2 04:32:16 28° SE 04:32:55 29° ESE 04:36:42 10° NE visible
26 Jan 4.9 06:12:14 16° WSW 06:15:19 41° NW 06:19:31 10° NNE visible
27 Jan 7.2 03:51:38 16° E 03:51:38 16° E 03:53:30 10° ENE visible
27 Jan 4.4 05:31:34 46° WSW 05:32:40 66° NW 05:37:03 10° NNE visible
28 Jan 4.8 04:50:42 62° ENE 04:50:42 62° ENE 04:54:30 10° NE visible
28 Jan 5.8 06:30:38 14° WNW 06:33:10 22° NNW 06:36:41 10° NNE visible
29 Jan 6.6 04:09:42 25° ENE 04:09:42 25° ENE 04:11:49 10° NE visible
29 Jan 5.3 05:49:37 30° WNW 05:50:19 31° NW 05:54:19 10° NNE visible
30 Jan 7.7 03:28:34 11° ENE 03:28:34 11° ENE 03:28:53 10° ENE visible
30 Jan 5.2 05:08:29 41° N 05:08:29 41° N 05:11:54 10° NNE visible
30 Jan 6.5 06:48:53 10° NW 06:51:17 14° NNW 06:53:44 10° N visible
31 Jan 6.2 04:27:17 28° NNE 04:27:17 28° NNE 04:29:25 10° NE visible
31 Jan 6.1 06:07:12 17° NW 06:08:17 18° NNW 06:11:27 10° NNE visible
01 Feb 7.3 03:46:01 15° NE 03:46:01 15° NE 03:46:50 10° NE visible
01 Feb 5.9 05:25:55 24° NNW 05:25:55 24° NNW 05:29:07 10° NNE visible
02 Feb 6.2 04:44:36 24° N 04:44:36 24° N 04:46:44 10° NNE visible
02 Feb 6.6 06:24:34 10° NW 06:26:30 12° NNW 06:28:29 10° N visible
03 Feb 7.0 04:03:14 17° NNE 04:03:14 17° NNE 04:04:18 10° NNE visible
03 Feb 6.4 05:43:08 15° NNW 05:43:27 16° NNW 05:46:12 10° NNE visible
04 Feb 6.5 05:01:44 18° N 05:01:44 18° N 05:03:53 10° NNE visible
04 Feb 6.9 06:44:23 10° NNW 06:44:54 10° N 06:45:25 10° N visible
